TimeEST,TemperatureF,Dew PointF,Humidity,Sea Level PressureIn,VisibilityMPH,Wind Direction,Wind SpeedMPH,Gust SpeedMPH,PrecipitationIn,Events,Conditions,WindDirDegrees,DateUTC
12:47 AM,33.8,32.0,93,29.97,8.0,NNE,6.9,-,0.00,,Overcast,30,2012-12-25 05:47:00
12:56 AM,33.1,32.0,96,29.97,7.0,NNE,8.1,-,0.00,,Overcast,30,2012-12-25 05:56:00
1:18 AM,33.8,33.8,100,29.96,6.0,NNE,8.1,-,0.00,Rain,Light Rain,30,2012-12-25 06:18:00
1:36 AM,33.8,33.8,100,29.96,7.0,NNE,8.1,-,0.00,,Overcast,30,2012-12-25 06:36:00
1:56 AM,34.0,33.1,96,29.96,5.0,NNE,8.1,-,0.00,Rain,Light Rain,30,2012-12-25 06:56:00
2:43 AM,33.8,33.8,100,29.95,4.0,NNE,6.9,-,0.00,Rain,Light Rain,20,2012-12-25 07:43:00
2:56 AM,34.0,34.0,100,29.95,4.0,NNE,5.8,-,0.00,Rain,Light Rain,20,2012-12-25 07:56:00
3:15 AM,35.6,33.8,93,29.96,6.0,North,8.1,-,0.00,Rain,Light Rain,10,2012-12-25 08:15:00
3:56 AM,35.1,34.0,96,29.94,4.0,NE,6.9,-,0.00,Rain,Light Rain,40,2012-12-25 08:56:00
4:06 AM,35.6,33.8,93,29.94,3.0,NNE,8.1,-,0.00,Rain,Light Rain,30,2012-12-25 09:06:00
4:56 AM,35.1,35.1,100,29.94,4.0,NNE,8.1,-,0.00,Rain,Light Rain,20,2012-12-25 09:56:00
5:56 AM,36.0,35.1,97,29.93,6.0,NNE,9.2,-,0.00,Rain,Light Rain,20,2012-12-25 10:56:00
6:56 AM,35.1,34.0,96,29.94,5.0,North,10.4,-,0.00,,Overcast,360,2012-12-25 11:56:00
7:56 AM,34.0,34.0,100,29.96,4.0,North,10.4,-,0.00,Rain,Light Rain,10,2012-12-25 12:56:00
8:19 AM,33.8,33.8,100,29.97,2.5,North,10.4,-,0.00,Rain,Light Rain,360,2012-12-25 13:19:00
8:49 AM,35.6,33.8,93,29.98,4.0,North,9.2,-,0.00,Rain,Light Rain,360,2012-12-25 13:49:00
8:56 AM,35.1,34.0,96,29.98,5.0,North,12.7,-,0.00,Rain,Light Rain,10,2012-12-25 13:56:00
9:56 AM,35.1,34.0,96,30.01,5.0,North,9.2,-,0.00,,Overcast,360,2012-12-25 14:56:00
10:09 AM,35.6,33.8,93,30.01,4.0,North,10.4,-,N/A,,Overcast,360,2012-12-25 15:09:00
10:40 AM,35.6,33.8,93,30.01,2.5,North,10.4,-,N/A,,Overcast,350,2012-12-25 15:40:00
10:56 AM,35.1,34.0,96,30.01,1.5,NNW,11.5,-,0.00,Rain,Light Rain,340,2012-12-25 15:56:00
11:38 AM,33.8,33.8,100,30.00,1.2,North,10.4,-,0.00,Rain,Light Rain,360,2012-12-25 16:38:00
11:56 AM,34.0,34.0,100,30.00,1.5,North,11.5,-,0.00,Rain,Light Rain,350,2012-12-25 16:56:00
12:29 PM,33.8,33.8,100,30.00,2.5,North,11.5,-,0.00,,Overcast,360,2012-12-25 17:29:00
12:34 PM,35.6,33.8,93,30.00,3.0,North,12.7,-,0.00,,Overcast,360,2012-12-25 17:34:00
12:56 PM,35.1,34.0,96,30.00,5.0,North,12.7,-,0.00,,Overcast,360,2012-12-25 17:56:00
1:56 PM,36.0,33.1,89,30.02,6.0,NNW,15.0,21.9,N/A,,Overcast,340,2012-12-25 18:56:00
2:51 PM,37.4,33.8,87,30.06,6.0,NNW,11.5,-,N/A,,Mostly Cloudy,330,2012-12-25 19:51:00
2:56 PM,37.0,34.0,89,30.05,7.0,NNW,13.8,20.7,N/A,,Mostly Cloudy,330,2012-12-25 19:56:00
3:56 PM,37.0,30.9,79,30.07,8.0,NNW,10.4,-,N/A,,Partly Cloudy,330,2012-12-25 20:56:00
4:56 PM,35.1,30.0,82,30.09,9.0,NNW,9.2,-,N/A,,Scattered Clouds,330,2012-12-25 21:56:00
5:03 PM,35.6,30.2,81,30.10,9.0,NNW,8.1,-,N/A,,Scattered Clouds,330,2012-12-25 22:03:00
5:56 PM,35.1,28.0,76,30.13,10.0,North,6.9,-,N/A,,Scattered Clouds,360,2012-12-25 22:56:00
6:56 PM,34.0,28.0,79,30.16,9.0,Variable,3.5,-,N/A,,Clear,0,2012-12-25 23:56:00
7:56 PM,32.0,26.1,79,30.17,9.0,NNW,8.1,-,N/A,,Clear,340,2012-12-26 00:56:00
8:56 PM,30.9,25.0,79,30.18,9.0,NNW,5.8,-,N/A,,Clear,330,2012-12-26 01:56:00
9:56 PM,30.0,23.0,75,30.20,10.0,NNW,8.1,-,N/A,,Clear,340,2012-12-26 02:56:00
10:56 PM,30.0,21.0,69,30.22,10.0,North,10.4,-,N/A,,Clear,350,2012-12-26 03:56:00
11:56 PM,28.9,19.9,69,30.23,10.0,NNW,9.2,-,N/A,,Clear,340,2012-12-26 04:56:00